AirNav   Air Wisconsin pilot careers
 
 784 users online  

8GA8 Falcons Aerie Airport
Carrollton, Georgia, USA

GOING TO CARROLLTON?


FAA INFORMATION EFFECTIVE 24 MAY 2018

Location

FAA Identifier: 8GA8
Lat/Long: 33-34-38.3980N / 085-00-10.7930W
33-34.639967N / 085-00.179883W
33.5773328 / -85.0029981
(estimated)
Elevation: 1180 ft. / 360 m (estimated)
Variation: 02W (1990)
From city: 5 miles E of CARROLLTON, GA
Time zone: UTC -4 (UTC -5 during Standard Time)
Zip code: 30116

Airport Operations

Airport use: Private use. Permission required prior to landing
Activation date: 03/1992
Control tower: no
ARTCC: ATLANTA CENTER
FSS: MACON FLIGHT SERVICE STATION
Attendance: IREG
Wind indicator: yes
Segmented circle: no

Airport Communications

WX AWOS-3 at CTJ (8 nm NW): 118.175 (770-214-9667)
WX AWOS-3PT at CCO (20 nm SE): 118.975 (770-254-1617)

Nearby radio navigation aids

VOR radial/distance  VOR name  Freq  Var
ATLr269/28.6ATLANTA VORTAC116.9005W
LGCr017/33.3LAGRANGE VORTAC115.6001E
RMGr170/35.6ROME VORTAC115.4001E
PDKr248/39.4PEACHTREE VOR/DME116.6005W

 
NDB name  Hdg/Dist  Freq  Var  ID
CARROLLTON088/6.427804WGPQ --. .--. --.-
COWETA COUNTY326/24.123403WEQQ . --.- --.-
PECAT308/30.731605WFFC ..-. ..-. -.-.
CARTERSVILLE196/38.230804WEVZ . ...- --..

Airport Services

Runway Information

Runway 17/35

Dimensions: 2000 x 60 ft. / 610 x 18 m
Surface: turf
RUNWAY 17  RUNWAY 35
Traffic pattern: leftleft

Airport Ownership and Management from official FAA records

Ownership: Privately-owned
Owner: BART STONE
1451 HORSLEY MILL RD
CARROLLTON, GA 30117
Phone (770) 617-4566

Airport Operational Statistics

Aircraft based on the field: 1
Single engine airplanes: 1
    

Instrument Procedures

There are no published instrument procedures at 8GA8.

Some nearby airports with instrument procedures:

KCTJ - West Georgia Regional Airport-O V Gray Field (8 nm NW)
KCCO - Newnan Coweta County Airport (20 nm SE)
KPUJ - Paulding Northwest Atlanta Airport (20 nm N)
KFFC - Atlanta Regional Airport-Falcon Field (25 nm SE)
KFTY - Fulton County Airport-Brown Field (27 nm NE)
 
Loc | Ops | Rwys | IFR | FBO | Links
Com | Nav | Svcs | Stats | Notes

AirNav Hotels Sweepstakes
 
Area around 8GA8 (Falcons Aerie Airport)
 
Road maps at: MapQuest Bing Google
 
Aerial photo
No photo
 
Sectional chart

 
Airport distance calculator
Flying to Falcons Aerie Airport? Find the distance to fly.

From to 8GA8

Sunrise and sunset
Times for 25-May-2018
 Local
(UTC-4)
 Zulu
(UTC)
Morning civil twilight06:0610:06
Sunrise06:3410:34
Sunset20:3900:39
Evening civil twilight21:0801:08

Current date and time
Zulu (UTC)  26-May-2018 03:06:03
Local (UTC-4)  25-May-2018 23:06:03
 
METAR
KCTJ 
8nm NW 
260235Z AUTO 00000KT 10SM VCTS SCT075 SCT085 BKN120 22/22 A3003 RMK AO2 LTG DSNT E AND SW T02220215
KCCO 
20nm SE 
260255Z AUTO 14004KT 10SM VCTS SCT100 23/20 A3001 RMK AO2 LTG DSNT N AND SW T02280202
TAF
KFTY 
27nm NE 
260031Z 2601/2624 13005KT P6SM -SHRA FEW020 BKN080 FM260200 14004KT P6SM VCSH FEW020 OVC050 FM260600 00000KT P6SM OVC025 FM260900 00000KT 5SM BR OVC015 FM261500 00000KT P6SM VCSH BKN025 FM261800 18004KT P6SM BKN035 PROB30 2618/2624 VRB10G20KT 3SM TSRA BR BKN025CB
KATL 
28nm E 
260133Z 2602/2706 16007KT P6SM FEW020 BKN080 TEMPO 2602/2604 6SM -SHRA BKN035 FM260600 13003KT P6SM OVC025 FM260900 00000KT P6SM OVC015 FM261600 19003KT P6SM VCSH BKN025 FM261800 19005KT P6SM BKN040 PROB30 2618/2624 VRB10G20KT 3SM TSRA BR BKN025CB
KMGE 
32nm NE 
242355Z 2423/2603 09006KT 8000 -SHRA BKN040 BKN250 QNH3002INS TEMPO 2423/2502 09010G15KT 6000 -TSRA BKN015CB BECMG 2501/2502 12006KT 9999 NSW BKN030 QNH3006INS BECMG 2505/2506 09003KT 4800 BR BKN012 QNH3008INS BECMG 2514/2515 12006KT 9999 NSW BKN020 QNH3003INS BECMG 2523/2524 15006KT 8000 -SHRA VCTS BKN030CB BKN100 QNH3001INS TX28/2423Z TN19/2512Z
KRYY 
33nm NE 
260148Z 2602/2624 10005KT P6SM SCT015 OVC035 TEMPO 2602/2606 3SM -TSRA BR BKN015CB FM260600 00000KT 5SM BR VCSH OVC025 FM260900 00000KT 3SM BR OVC015 FM261500 18003KT P6SM VCSH BKN025 FM261800 18004KT P6SM BKN035 PROB30 2618/2624 VRB10G20KT 3SM TSRA BR BKN025CB
NOTAMs
Click for the latest NOTAMs
NOTAMs are issued by the DoD/FAA and will open in a separate window not controlled by AirNav.

 

 
 

Would you like to see your business listed on this page?

 If your business provides an interesting product or service to pilots, flight crews, aircraft, or users of the Falcons Aerie Airport, you should consider listing it here.  To start the listing process, click on the button below
 
Add a business
 

Other Pages about Falcons Aerie Airport

Update a link
 
Copyright © AirNav, LLC. All rights reserved. Privacy Policy  Contact